Regional Weather Roundup
Issued by NWS

Home | Current Version | Previous Version | Graphics & Text | Print | Product List | Glossary On
Versions: 1 2 3 4 5 6 7 8 9 10 11 12 13 14 15 16 17 18 19 20 21 22 23 24 25 26 27 28 29 30 31 32 33 34 35 36 37 38 39 40 41 42 43 44 45 46 47 48 49 50
000
ASUS43 KMKX 250059
RWRWI

WISCONSIN REGIONAL WEATHER ROUNDUP
NATIONAL WEATHER SERVICE MILWAUKEE/SULLIVAN WI
700 PM CST SAT FEB 24 2018

NOTE: "FAIR" INDICATES FEW OR NO CLOUDS BELOW 12,000 FEET WITH NO
SIGNIFICANT WEATHER AND/OR OBSTRUCTIONS TO VISIBILITY.

WIZ001-002-006>008-014>016-023>028-250200-
NORTHWEST WISCONSIN

CITY           SKY/WX    TMP DP  RH WIND       PRES   REMARKS
SUPERIOR ARPT  CLOUDY    25  23  92 E13G20    29.75F WCI  13
ASHLAND        LGT SNOW  22  20  92 NE15      29.73F VSB 3/4 WCI   9
HAYWARD        LGT SNOW  31  27  85 E12G25    29.60F VSB 1   WCI  22
SIREN          LGT SNOW  29  28  95 E3        29.65F
CUMBERLAND     LGT SNOW  30  28  93 E6        29.62R WCI  24
RICE LAKE      LGT SNOW  31  29  89 E8        29.63R WCI  24
CHETEK         LGT SNOW  31  26  81 SE10G25   29.61F WCI  23
LADYSMITH      CLOUDY    33  24  71 E17G30    29.62F HAZE    WCI  22
EAU CLAIRE     LGT SNOW  31  28  89 SE13      29.62S FOG     WCI  21
MENOMONIE      LGT SNOW  32  30  93 E7        29.63S WCI  25
NEW RICHMOND   LGT SNOW  30  27  89 E5        29.63F VSB 1   WCI  25
OSCEOLA        LGT SNOW  30  30 100 NE5       29.66F VSB 3/4 WCI  25
$$

WIZ003>005-009-010-017-018-250200-
NORTH CENTRAL WISCONSIN

CITY           SKY/WX    TMP DP  RH WIND       PRES   REMARKS
MANITOWISH WTR CLOUDY    31  22  69 E9G17     29.72F WCI  23
ARBOR VITAE    CLOUDY    32  24  71 SE14G22   29.72F WCI  22
WOODRUFF       CLOUDY    32  24  71 SE14G22   29.72F WCI  22
RHINELANDER    CLOUDY    30  23  75 E21G29    29.72F WCI  17
EAGLE RIVER    CLOUDY    30  20  67 SE14G20   29.75F WCI  19
LAND O LAKES   CLOUDY    31  21  66 E16G30    29.74F WCI  20
PHILLIPS       CLOUDY    31  23  71 E13G18    29.66F WCI  21
TOMAHAWK       CLOUDY    30  23  74 E13G20    29.72F WCI  20
MEDFORD        LGT SNOW  29  26  86 E20G28    29.64F WCI  16
MERRILL        LGT SNOW  30  25  82 E14G21    29.70F WCI  20
$$

WIZ029-030-035-036-043>047-250200-
CENTRAL WISCONSIN

CITY           SKY/WX    TMP DP  RH WIND       PRES   REMARKS
WAUSAU         LGT SNOW  30  27  86 E16G24    29.68F FOG     WCI  19
MOSINEE        NOT AVBL
MARSHFIELD     FRZ RAIN  31  28  89 E22G31    29.62F FOG     WCI  18
STEVENS POINT  MIX PCPN  29  28  96 E17G24    29.72F WCI  17
WAUPACA        DRIZZLE   33  28  81 E15       29.76F WCI  23
WAUTOMA        FRZ RAIN  31  30  96 E15G24    29.71F FOG     WCI  20
WISC RAPIDS    FRZ RAIN  32  28  85 E21G26    29.67F FOG     WCI  20
CAMP DOUGLAS   FRZ RAIN  33  32  99 E12       29.63F FOG     WCI  24
$$

WIZ011>013-019>022-031-037>040-048>050-250200-
NORTHEAST WISCONSIN

CITY           SKY/WX    TMP DP  RH WIND       PRES   REMARKS
ANTIGO         CLOUDY    28  24  84 E18G25    29.76F WCI  15
SHAWANO        CLOUDY    33  26  78 E15       29.80F WCI  22
OCONTO         CLOUDY    31  26  81 E7        29.84F WCI  25
STURGEON BAY   CLOUDY    34  28  79 E12G20    29.83F WCI  25
GREEN BAY      CLOUDY    33  26  75 E10       29.81F WCI  25
MANITOWOC      CLOUDY    36  31  82 E16       29.80F WCI  26
APPLETON       LGT RAIN  32  25  74 E12G20    29.76F WCI  23
CLINTONVILLE   FLURRIES  32  25  77 E13G24    29.77F WCI  22
OSHKOSH        LGT RAIN  33  29  85 E15       29.74F WCI  23
$$

WIZ032>034-041-042-053>061-250200-
SOUTHWEST WISCONSIN

CITY           SKY/WX    TMP DP  RH WIND       PRES   REMARKS
LA CROSSE      LGT SNOW  34  32  92 SE7       29.60F FOG     WCI  28
SPARTA         MIX PCPN  32  31  96 E12       29.64F WCI  23
VIROQUA        CLOUDY    32  32 100 SE16      29.59F WCI  22
BOSCOBEL       CLOUDY    37  34  89 E7        29.61F FOG     WCI  32
PRAIRIE DU CHI LGT RAIN  35  33  94 E9        29.59F WCI  27
PLATTEVILLE    CLOUDY    35  35 100 E18G24    29.60F WCI  24
$$

WIZ056-057-062-063-064-067-068-250200-
SOUTH CENTRAL WISCONSIN

CITY           SKY/WX    TMP DP  RH WIND       PRES   REMARKS
REEDSBURG      DRIZZLE   33  33 100 E6        29.64F WCI  27
BARABOO/DELLS  LGT RAIN  32  32  97 E20G25    29.65F VSB 1   WCI  21
LONE ROCK      CLOUDY    34  34 100 E17       29.62F FOG     WCI  23
MINERAL POINT  LGT RAIN  34  34 100 E14G20    29.61F WCI  24
MADISON        DRIZZLE   35  33  92 SE16G22   29.67F FOG     WCI  25
MIDDLETON      CLOUDY    35  35  99 E14       29.67F WCI  26
WATERTOWN      LGT RAIN  35  35 100 E16G22    29.71F WCI  25
MONROE         LGT RAIN  34  34 100 E12G18    29.64F WCI  25
JANESVILLE     LGT RAIN  37  37 100 E14       29.66F WCI  29
$$

WIZ051-052-058>065-066-070>072-250200-
SOUTHEAST WISCONSIN

CITY           SKY/WX    TMP DP  RH WIND       PRES   REMARKS
MILWAUKEE      CLOUDY    38  36  92 SE15      29.75F FOG     WCI  29
WAUKESHA       CLOUDY    34  34 100 E13G21    29.74F FOG     WCI  25
MILWAUKEE/TIMM RAIN      36  32  87 E10G16    29.77F WCI  28
RACINE         CLOUDY    38  37  97 SE15      29.76F WCI  29
BURLINGTON     CLOUDY    37  36  94 E15G21    29.72F FOG     WCI  28
KENOSHA        CLOUDY    38  36  92 E15       29.72F FOG     WCI  29
FOND DU LAC    LGT RAIN  34  29  82 E8        29.74F WCI  27
SHEBOYGAN      LGT RAIN  35  33  92 E12       29.78F FOG     WCI  27
WEST BEND      LGT RAIN  34  34 100 E13G18    29.77F WCI  25
JUNEAU         LGT RAIN  34  32  93 E18G25    29.72F WCI  23
$$

LSZ147-162-250200-
LAKE SUPERIOR

STATION/POSITION TIME  TEMP    WIND        PRES    WAVE
                       AIR SEA DIR/SP/G            HT/PER
                 (UTC) (F)     (DEG/KT/KT) (MB)    (FT/S)
DEVILS ISLAND    0000   24      70/ 21/ 26 1012.0F
SAXON HARBOR     0040   24      30/  6/  7 1007.5F
$$

LMZ867-665-643>646-250200-
LAKE MICHIGAN

STATION/POSITION TIME  TEMP    WIND        PRES    WAVE
                       AIR SEA DIR/SP/G            HT/PER
                 (UTC) (F)     (DEG/KT/KT) (MB)    (FT/S)
NORTHPORT PIER   0040   33                 1011.9F
KEWAUNEE LAKESHO 0030   35      80/ 10/ 14 1009.9F
SHEBOYGAN LAKESH 0000   35      70/ 16/ 18 1010.8F
PORT WASHINGTON  0030   37      90/ 13/ 15 1010.2F
KENOSHA   LAKESH 0000   37     120/ 13/ 15 1008.8
$$

TC  - TEMPERATURE IN CELSIUS
VSB - VISIBILITY IN STATUTE MILES
WCI - WIND CHILL INDEX
HX  - HEAT INDEX





USA.gov is the U.S. government's official web portal to all federal, state and local government web resources and services.